Location: Saint Peter Port
(49.4500°N, 2.5330°W)
Time: 10:28:37
(UTC+01:00)

Cosmos 2242 Rocket - Visible Passes

Search period start: 15 September 2014 00:00
Search period end: 25 September 2014 00:00
Orbit: 620 x 653 km, 82.5° (Epoch: 15 September)

Date Brightness Start Highest point End Pass type
(mag) Time Alt. Az. Time Alt. Az. Time Alt. Az.
15 Sep 5.7 22:29:39 18° NNE 22:29:39 18° NNE 22:30:55 10° NNE visible
16 Sep 6.2 00:07:09 17° NNW 00:07:09 17° NNW 00:08:43 10° NNW visible
16 Sep 5.6 22:52:16 23° NNE 22:52:16 23° NNE 22:53:59 10° N visible
17 Sep 6.6 00:29:46 12° NW 00:29:46 12° NW 00:30:29 10° NW visible
17 Sep 5.9 21:37:21 12° NE 21:37:21 12° NE 21:37:45 10° NE visible
17 Sep 5.7 23:14:52 24° NNW 23:14:52 24° NNW 23:16:47 10° N visible
18 Sep 5.6 21:59:56 18° NE 21:59:56 18° NE 22:01:17 10° NNE visible
18 Sep 6.1 23:37:27 20° NNW 23:37:27 20° NNW 23:39:18 10° NNW visible
19 Sep 5.3 22:22:30 25° NNE 22:22:30 25° NNE 22:24:25 10° NNE visible
20 Sep 6.5 00:00:00 13° NW 00:00:00 13° NW 00:01:18 10° NNW visible
20 Sep 5.8 21:07:32 12° NE 21:07:32 12° NE 21:07:57 10° NE visible
20 Sep 5.4 22:45:02 28° N 22:45:02 28° N 22:47:16 10° N visible
21 Sep 5.4 21:30:03 19° NE 21:30:03 19° NE 21:31:38 10° NNE visible
21 Sep 5.8 23:07:33 23° NW 23:07:33 23° NW 23:09:51 10° N visible
22 Sep 4.9 21:52:31 30° NNE 21:52:31 30° NNE 21:54:50 10° NNE visible
22 Sep 6.3 23:30:01 16° NW 23:30:01 16° NW 23:32:01 10° NNW visible
23 Sep 5.7 20:37:27 12° NE 20:37:27 12° NE 20:38:06 10° NE visible
23 Sep 4.9 22:14:57 37° N 22:14:57 37° N 22:17:44 10° N visible
24 Sep 5.1 20:59:50 22° NE 20:59:50 22° NE 21:01:58 10° NNE visible
24 Sep 5.4 22:37:19 30° NW 22:37:19 30° NW 22:40:24 10° N visible
